Tracking 29493 objects as of 8-Sep-2024
HD Live streaming from Space Station
objects crossing your sky now

FENGYUN 1C DEB

Track FENGYUN 1C DEB now!
10-day predictions


NORAD ID: 31665
Int'l Code: 1999-025CBX
Perigee: 822.4 km
Apogee: 1,103.0 km
Inclination: 98.5 °
Period: 104.2 minutes
Semi major axis: 7333 km
RCS: 0.0067 m2 (small)
Launch date: May 10, 1999
Source: People's Republic of China (PRC)
Launch site: Taiyaun Space Center, China (TSC)

Note: This is SATELLITE DEBRIS
Your satellite tracking list
Your tracking list is empty




NASA's NSSDC Master Catalog

Two Line Element Set (TLE):
1 31665U 99025CBX 24250.20119152  .00003949  00000-0  32068-2 0  9996
2 31665  98.4818 332.6349 0191304  12.1684 348.3999 13.82350823867945
Source of the keplerian elements: AFSPC